Regional Weather Roundup
Issued by NWS

Home | Current Version | Previous Version | Text Only | Print | Product List | Glossary Off
Versions: 1 2 3 4 5 6 7 8 9 10 11 12 13 14 15 16 17 18 19 20 21 22 23 24 25 26 27 28 29 30 31 32 33 34 35 36 37 38 39 40 41 42 43 44 45 46 47 48 49 50

000
ASUS45 KTFX 190604
RWRMT
MONTANA HOURLY WEATHER ROUNDUP
NATIONAL WEATHER SERVICE GREAT FALLS MT
1204 AM MDT FRI SEP 19 2014

NOTE: "FAIR" INDICATES FEW OR NO CLOUDS BELOW 12000 FEET WITH NO
SIGNIFICANT WEATHER AND/OR OBSTRUCTIONS TO VISIBILITY.

* THESE STATIONS ARE NOT UNDER NWS QUALITY CONTROL. THEY DO NOT
   REPORT WEATHER SUCH AS PRECIPITATION OR FOG.

MTZ001>007-043-190700-
WEST OF THE DIVIDE
CITY           SKY/WX    TMP DP  RH WIND       PRES   REMARKS
KALISPELL      CLOUDY    59  46  62 SE3       29.78S
MISSOULA       CLOUDY    63  45  52 NW3       29.87S
BUTTE          PTCLDY    48  43  83 SE3       29.96R
MULLAN PASS    CLOUDY    48  45  89 SW8G21    29.96S
* ESSEX        N/A       63  44  50 N/A        N/A
* LINCOLN      N/A       63  39  41 SW4G13     N/A
* LOOKOUT PASS N/A       56  47  72 SE10G16    N/A
* POLSON       N/A       62  43  50 S3         N/A
* RONAN APT    CLOUDY    63  46  54 N/A        N/A
* SEELEY LAKE  N/A       57  42  57 E2         N/A
* THOMP F APT  CLOUDY    54  51  90 NE5        N/A
$$

MTZ008-052>055-190700-
SOUTHWEST MONTANA
CITY           SKY/WX    TMP DP  RH WIND       PRES   REMARKS
BOZEMAN        PTCLDY    54  48  80 S10       29.89R
DILLON         FAIR      54  43  67 SW8       29.92R
W YELLOWSTONE  CLOUDY    50  46  86 E7        30.05F
* THREE FORKS  PTCLDY    54  54 100 N/A        N/A
* BOULDER HILL N/A       52  45  77 S3         N/A
* MONIDA PASS  N/A       48  47  96 E6         N/A
* RAYNOLDS PAS N/A       50  36  59 S11        N/A
* WHITEHALL    N/A       56  47  72 N2         N/A
* WISE RIVER   N/A       51  39  64 SE4        N/A
$$

MTZ009>010-012-014-046-048-049-054-190700-
EAST SLOPES AND CENTRAL MONTANA
CITY           SKY/WX    TMP DP  RH WIND       PRES   REMARKS
CUT BANK       CLOUDY    63  43  48 W12       29.74S
GREAT FALLS    MOCLDY    57  45  64 SW12      29.77R
HELENA         PTCLDY    61  46  58 W8        29.85R
MALMSTROM AFB  MOCLDY    59  45  60 W9        29.79R
* CONRAD       CLOUDY    54  50  86 N/A        N/A
* EAST GLACIER N/A       61  40  46 NW22G29    N/A
* MONARCH      N/A       54  46  74 S8         N/A
* PENDROY      N/A       57  42  57 W2         N/A
* SAINT MARY   N/A       62  41  46 S7G21      N/A
* SWEET GRASS  N/A       59  41  51 W10        N/A
$$

MTZ011-013-016-021-035-040-045-047-050-051-190700-
NORTH CENTRAL MONTANA
CITY           SKY/WX    TMP DP  RH WIND       PRES   REMARKS
HAVRE          MOCLDY    66  45  47 VRB7G20   29.67R
LEWISTOWN      CLOUDY    64  50  61 SW15      29.80R
* CHESTER      N/A       61  40  46 NW1G8      N/A
* DENTON       N/A       58  49  72 W7         N/A
* GEYSER       N/A       57  48  72 W4         N/A
* JUDITH GAP   N/A       57  49  75 SW19G35    N/A
* LOMA         N/A       65  45  49 S6         N/A
$$

MTZ017>020-022>027-061-062-190700-
NORTHEAST MONTANA
CITY           SKY/WX    TMP DP  RH WIND       PRES   REMARKS
GLASGOW        CLOUDY    64  52  65 S6        29.61F
GLENDIVE       CLOUDY    66  54  65 S12       29.69F
JORDAN         CLOUDY    63  55  75 CALM      29.68R
SIDNEY         CLOUDY    61  54  78 S9        29.64F
WOLF POINT     CLOUDY    59  54  84 CALM      29.62F
* BEAVER HILL  N/A       70  53  55 S13G18     N/A
* CIRCLE       N/A       64  54  70 N/A        N/A
* LINDSAY DVD  N/A       66  55  68 SW13       N/A
* NAVAJO       N/A       64  52  65 W12        N/A
* SACO         N/A       67  48  51 E2G9       N/A
$$

MTZ028>042-056>058-190700-
SOUTHCENTRAL AND SOUTHEAST MONTANA
CITY           SKY/WX    TMP DP  RH WIND       PRES   REMARKS
BAKER          CLOUDY    68  55  63 SW15      29.71F
BILLINGS       CLOUDY    64  55  73 W15G25    29.79F
LIVINGSTON     CLOUDY    61  48  62 W10       29.88R
MILES CITY     CLOUDY    64  54  70 SW10      29.72R
* LAUREL APT   CLOUDY    63  52  68 S7         N/A
* ROUNDUP APT  CLOUDY    64  52  65 S6         N/A
* ALZADA       N/A       66  54  65 NW11       N/A
* LAME DEER    N/A       63  52  68 SW17G23    N/A
* REED POINT   N/A       58  55  90 W1         N/A
* ROSCOE HILL  N/A       59  45  60 S17G29     N/A
$$

REGIONAL REPORTS...DAKOTAS
CITY           SKY/WX    TMP DP  RH WIND       PRES   REMARKS
WILLISTON      CLOUDY    66  54  65 SW5       29.61S
DICKINSON      CLOUDY    70  55  59 W17G24    29.68F
BEACH          N/A       68  54  61 SW12      29.71F
CROSBY         CLEAR     63  55  75 S13       29.56F
TIOGA          FAIR      66  52  61 SW12      29.63S
WATFORD CITY   CLEAR     64  54  70 SW10      29.61S
BISMARCK       MOCLDY    70  61  73 S7        29.67S
GRAND FORKS    CLOUDY    66  57  73 S21G30    29.66S
FARGO          CLOUDY    66  55  68 S15G24    29.76R
BUFFALO SD     CLOUDY    68  54  61 W13       29.71S
RAPID CITY     MOCLDY    70  57  64 NW13G22   29.73R
$$

REGIONAL REPORTS...WYOMING/IDAHO/WASHINGTON
CITY           SKY/WX    TMP DP  RH WIND       PRES   REMARKS
GILLETTE       CLOUDY    64  52  65 N7        29.87R
SHERIDAN       CLOUDY    61  55  81 S13       29.88R
CODY           CLOUDY   N/A N/A N/A N/A        N/A
YELLOWSTONE LA CLOUDY    48  45  89 VRB6      30.15R
SALMON         CLEAR     54  43  67 SE3       29.89R
MULLAN PASS    CLOUDY    48  45  89 SW8G21    29.96S
SAND POINT     CLOUDY    55  55 100 CALM      29.81R
SPOKANE        MOCLDY    63  46  54 SW12      29.83R

$$




USA.gov is the U.S. government's official web portal to all federal, state and local government web resources and services.